Aviation Digital Data Service (ADDS)

Output produced by METARs form (1929 UTC 18 April 2019)
found at http://www.aviationweather.gov/metar/data/
 
METAR text: OISS 181900Z 30004KT 9999 FEW040 18/00 Q1019 A3011
Conditions at: OISS (SHIRAZ (CIV/AFB), IR) observed 1900 UTC 18 April 2019
Temperature: 18.0°C (64°F)
Dewpoint: 0.0°C (32°F) [RH = 30%]
Pressure (altimeter): 30.09 inches Hg (1019.0 mb)
Winds: from the WNW (300 degrees) at 5 MPH (4 knots; 2.1 m/s)
Visibility: 6 or more miles (10+ km)
Ceiling: at least 12,000 feet AGL
Clouds: few clouds at 4000 feet AGL
Weather: no significant weather observed at this time

METAR text: OISS 181850Z 30004KT 9999 FEW040 18/00 Q1019 A3011
Conditions at: OISS (SHIRAZ (CIV/AFB), IR) observed 1850 UTC 18 April 2019
Temperature: 18.0°C (64°F)
Dewpoint: 0.0°C (32°F) [RH = 30%]
Pressure (altimeter): 30.09 inches Hg (1019.0 mb)
Winds: from the WNW (300 degrees) at 5 MPH (4 knots; 2.1 m/s)
Visibility: 6 or more miles (10+ km)
Ceiling: at least 12,000 feet AGL
Clouds: few clouds at 4000 feet AGL
Weather: no significant weather observed at this time

METAR text: OISS 181830Z 00000KT 9999 FEW040 18/00 Q1019 A3011
Conditions at: OISS (SHIRAZ (CIV/AFB), IR) observed 1830 UTC 18 April 2019
Temperature: 18.0°C (64°F)
Dewpoint: 0.0°C (32°F) [RH = 30%]
Pressure (altimeter): 30.09 inches Hg (1019.0 mb)
Winds: calm
Visibility: 6 or more miles (10+ km)
Ceiling: at least 12,000 feet AGL
Clouds: few clouds at 4000 feet AGL
Weather: no significant weather observed at this time

METAR text: OISS 181825Z 00000KT 9999 FEW040 18/00 Q1019 A3011
Conditions at: OISS (SHIRAZ (CIV/AFB), IR) observed 1825 UTC 18 April 2019
Temperature: 18.0°C (64°F)
Dewpoint: 0.0°C (32°F) [RH = 30%]
Pressure (altimeter): 30.09 inches Hg (1019.0 mb)
Winds: calm
Visibility: 6 or more miles (10+ km)
Ceiling: at least 12,000 feet AGL
Clouds: few clouds at 4000 feet AGL
Weather: no significant weather observed at this time

METAR text: OISS 181800Z 05004KT 9999 FEW040 18/01 Q1019 A3010
Conditions at: OISS (SHIRAZ (CIV/AFB), IR) observed 1800 UTC 18 April 2019
Temperature: 18.0°C (64°F)
Dewpoint: 1.0°C (34°F) [RH = 32%]
Pressure (altimeter): 30.09 inches Hg (1019.0 mb)
Winds: from the NE (50 degrees) at 5 MPH (4 knots; 2.1 m/s)
Visibility: 6 or more miles (10+ km)
Ceiling: at least 12,000 feet AGL
Clouds: few clouds at 4000 feet AGL
Weather: no significant weather observed at this time

METAR text: OISS 181750Z 05004KT 9999 FEW040 18/01 Q1019 A3010
Conditions at: OISS (SHIRAZ (CIV/AFB), IR) observed 1750 UTC 18 April 2019
Temperature: 18.0°C (64°F)
Dewpoint: 1.0°C (34°F) [RH = 32%]
Pressure (altimeter): 30.09 inches Hg (1019.0 mb)
Winds: from the NE (50 degrees) at 5 MPH (4 knots; 2.1 m/s)
Visibility: 6 or more miles (10+ km)
Ceiling: at least 12,000 feet AGL
Clouds: few clouds at 4000 feet AGL
Weather: no significant weather observed at this time

METAR text: OISS 181730Z 06004KT 9999 FEW040 18/02 Q1019 A3010
Conditions at: OISS (SHIRAZ (CIV/AFB), IR) observed 1730 UTC 18 April 2019
Temperature: 18.0°C (64°F)
Dewpoint: 2.0°C (36°F) [RH = 34%]
Pressure (altimeter): 30.09 inches Hg (1019.0 mb)
Winds: from the ENE (60 degrees) at 5 MPH (4 knots; 2.1 m/s)
Visibility: 6 or more miles (10+ km)
Ceiling: at least 12,000 feet AGL
Clouds: few clouds at 4000 feet AGL
Weather: no significant weather observed at this time

METAR text: OISS 181725Z 06004KT 9999 FEW040 18/02 Q1019 A3010
Conditions at: OISS (SHIRAZ (CIV/AFB), IR) observed 1725 UTC 18 April 2019
Temperature: 18.0°C (64°F)
Dewpoint: 2.0°C (36°F) [RH = 34%]
Pressure (altimeter): 30.09 inches Hg (1019.0 mb)
Winds: from the ENE (60 degrees) at 5 MPH (4 knots; 2.1 m/s)
Visibility: 6 or more miles (10+ km)
Ceiling: at least 12,000 feet AGL
Clouds: few clouds at 4000 feet AGL
Weather: no significant weather observed at this time

METAR text: OISS 181700Z 06004KT 9999 FEW040 18/01 Q1018 A3009
Conditions at: OISS (SHIRAZ (CIV/AFB), IR) observed 1700 UTC 18 April 2019
Temperature: 18.0°C (64°F)
Dewpoint: 1.0°C (34°F) [RH = 32%]
Pressure (altimeter): 30.06 inches Hg (1018.0 mb)
Winds: from the ENE (60 degrees) at 5 MPH (4 knots; 2.1 m/s)
Visibility: 6 or more miles (10+ km)
Ceiling: at least 12,000 feet AGL
Clouds: few clouds at 4000 feet AGL
Weather: no significant weather observed at this time

METAR text: OISS 181650Z 06004KT 9999 FEW040 18/01 Q1018 A3009
Conditions at: OISS (SHIRAZ (CIV/AFB), IR) observed 1650 UTC 18 April 2019
Temperature: 18.0°C (64°F)
Dewpoint: 1.0°C (34°F) [RH = 32%]
Pressure (altimeter): 30.06 inches Hg (1018.0 mb)
Winds: from the ENE (60 degrees) at 5 MPH (4 knots; 2.1 m/s)
Visibility: 6 or more miles (10+ km)
Ceiling: at least 12,000 feet AGL
Clouds: few clouds at 4000 feet AGL
Weather: no significant weather observed at this time

METAR text: OISS 181630Z 00000KT 9999 FEW040 17/01 Q1018 A3009
Conditions at: OISS (SHIRAZ (CIV/AFB), IR) observed 1630 UTC 18 April 2019
Temperature: 17.0°C (63°F)
Dewpoint: 1.0°C (34°F) [RH = 34%]
Pressure (altimeter): 30.06 inches Hg (1018.0 mb)
Winds: calm
Visibility: 6 or more miles (10+ km)
Ceiling: at least 12,000 feet AGL
Clouds: few clouds at 4000 feet AGL
Weather: no significant weather observed at this time

METAR text: OISS 181625Z 00000KT 9999 FEW040 17/01 Q1018 A3009
Conditions at: OISS (SHIRAZ (CIV/AFB), IR) observed 1625 UTC 18 April 2019
Temperature: 17.0°C (63°F)
Dewpoint: 1.0°C (34°F) [RH = 34%]
Pressure (altimeter): 30.06 inches Hg (1018.0 mb)
Winds: calm
Visibility: 6 or more miles (10+ km)
Ceiling: at least 12,000 feet AGL
Clouds: few clouds at 4000 feet AGL
Weather: no significant weather observed at this time

METAR text: OISS 181600Z 00000KT 9999 FEW040 17/01 Q1018 A3009
Conditions at: OISS (SHIRAZ (CIV/AFB), IR) observed 1600 UTC 18 April 2019
Temperature: 17.0°C (63°F)
Dewpoint: 1.0°C (34°F) [RH = 34%]
Pressure (altimeter): 30.06 inches Hg (1018.0 mb)
Winds: calm
Visibility: 6 or more miles (10+ km)
Ceiling: at least 12,000 feet AGL
Clouds: few clouds at 4000 feet AGL
Weather: no significant weather observed at this time

METAR text: OISS 181550Z 00000KT 9999 FEW040 17/01 Q1018 A3009
Conditions at: OISS (SHIRAZ (CIV/AFB), IR) observed 1550 UTC 18 April 2019
Temperature: 17.0°C (63°F)
Dewpoint: 1.0°C (34°F) [RH = 34%]
Pressure (altimeter): 30.06 inches Hg (1018.0 mb)
Winds: calm
Visibility: 6 or more miles (10+ km)
Ceiling: at least 12,000 feet AGL
Clouds: few clouds at 4000 feet AGL
Weather: no significant weather observed at this time

METAR text: OISS 181500Z 24004KT 9999 SCT040 21/M01 Q1018 A3008
Conditions at: OISS (SHIRAZ (CIV/AFB), IR) observed 1500 UTC 18 April 2019
Temperature: 21.0°C (70°F)
Dewpoint: -1.0°C (30°F) [RH = 23%]
Pressure (altimeter): 30.06 inches Hg (1018.0 mb)
Winds: from the WSW (240 degrees) at 5 MPH (4 knots; 2.1 m/s)
Visibility: 6 or more miles (10+ km)
Ceiling: at least 12,000 feet AGL
Clouds: scattered clouds at 4000 feet AGL
Weather: no significant weather observed at this time

METAR text: OISS 181450Z 24004KT 9999 SCT040 21/M01 Q1018 A3008 NOSIG
Conditions at: OISS (SHIRAZ (CIV/AFB), IR) observed 1450 UTC 18 April 2019
Temperature: 21.0°C (70°F)
Dewpoint: -1.0°C (30°F) [RH = 23%]
Pressure (altimeter): 30.06 inches Hg (1018.0 mb)
Winds: from the WSW (240 degrees) at 5 MPH (4 knots; 2.1 m/s)
Visibility: 6 or more miles (10+ km)
Ceiling: at least 12,000 feet AGL
Clouds: scattered clouds at 4000 feet AGL
Weather: no significant weather observed at this time

METAR text: OISS 181430Z 24006KT 9999 SCT040 BKN200 22/M01 Q1018 A3008
Conditions at: OISS (SHIRAZ (CIV/AFB), IR) observed 1430 UTC 18 April 2019
Temperature: 22.0°C (72°F)
Dewpoint: -1.0°C (30°F) [RH = 21%]
Pressure (altimeter): 30.06 inches Hg (1018.0 mb)
Winds: from the WSW (240 degrees) at 7 MPH (6 knots; 3.1 m/s)
Visibility: 6 or more miles (10+ km)
Ceiling: 20000 feet AGL
Clouds: scattered clouds at 4000 feet AGL
broken clouds at 20000 feet AGL
Weather: no significant weather observed at this time

METAR text: OISS 181420Z 24006KT 9999 SCT040 BKN200 22/M01 Q1018 A3008
Conditions at: OISS (SHIRAZ (CIV/AFB), IR) observed 1420 UTC 18 April 2019
Temperature: 22.0°C (72°F)
Dewpoint: -1.0°C (30°F) [RH = 21%]
Pressure (altimeter): 30.06 inches Hg (1018.0 mb)
Winds: from the WSW (240 degrees) at 7 MPH (6 knots; 3.1 m/s)
Visibility: 6 or more miles (10+ km)
Ceiling: 20000 feet AGL
Clouds: scattered clouds at 4000 feet AGL
broken clouds at 20000 feet AGL
Weather: no significant weather observed at this time

METAR text: OISS 181400Z 24006KT 9999 SCT040 BKN200 23/M00 Q1018 A3008
Conditions at: OISS (SHIRAZ (CIV/AFB), IR) observed 1400 UTC 18 April 2019
Temperature: 23.0°C (73°F)
Dewpoint: 0.0°C (32°F) [RH = 22%]
Pressure (altimeter): 30.06 inches Hg (1018.0 mb)
Winds: from the WSW (240 degrees) at 7 MPH (6 knots; 3.1 m/s)
Visibility: 6 or more miles (10+ km)
Ceiling: 20000 feet AGL
Clouds: scattered clouds at 4000 feet AGL
broken clouds at 20000 feet AGL
Weather: no significant weather observed at this time

METAR text: OISS 181350Z 24006KT 9999 SCT040 BKN200 23/M00 Q1018 A3008
Conditions at: OISS (SHIRAZ (CIV/AFB), IR) observed 1350 UTC 18 April 2019
Temperature: 23.0°C (73°F)
Dewpoint: 0.0°C (32°F) [RH = 22%]
Pressure (altimeter): 30.06 inches Hg (1018.0 mb)
Winds: from the WSW (240 degrees) at 7 MPH (6 knots; 3.1 m/s)
Visibility: 6 or more miles (10+ km)
Ceiling: 20000 feet AGL
Clouds: scattered clouds at 4000 feet AGL
broken clouds at 20000 feet AGL
Weather: no significant weather observed at this time

METAR text: OISS 181330Z 25006KT 9999 SCT040 BKN200 23/M02 Q1018 A3008
Conditions at: OISS (SHIRAZ (CIV/AFB), IR) observed 1330 UTC 18 April 2019
Temperature: 23.0°C (73°F)
Dewpoint: -2.0°C (28°F) [RH = 19%]
Pressure (altimeter): 30.06 inches Hg (1018.0 mb)
Winds: from the WSW (250 degrees) at 7 MPH (6 knots; 3.1 m/s)
Visibility: 6 or more miles (10+ km)
Ceiling: 20000 feet AGL
Clouds: scattered clouds at 4000 feet AGL
broken clouds at 20000 feet AGL
Weather: no significant weather observed at this time

METAR text: OISS 181325Z 25006KT 9999 SCT040 BKN200 23/M02 Q1018 A3008
Conditions at: OISS (SHIRAZ (CIV/AFB), IR) observed 1325 UTC 18 April 2019
Temperature: 23.0°C (73°F)
Dewpoint: -2.0°C (28°F) [RH = 19%]
Pressure (altimeter): 30.06 inches Hg (1018.0 mb)
Winds: from the WSW (250 degrees) at 7 MPH (6 knots; 3.1 m/s)
Visibility: 6 or more miles (10+ km)
Ceiling: 20000 feet AGL
Clouds: scattered clouds at 4000 feet AGL
broken clouds at 20000 feet AGL
Weather: no significant weather observed at this time

METAR text: OISS 181300Z 24010KT 9999 FEW035TCU SCT040 24/M01 Q1018 A3007
Conditions at: OISS (SHIRAZ (CIV/AFB), IR) observed 1300 UTC 18 April 2019
Temperature: 24.0°C (75°F)
Dewpoint: -1.0°C (30°F) [RH = 19%]
Pressure (altimeter): 30.06 inches Hg (1018.0 mb)
Winds: from the WSW (240 degrees) at 12 MPH (10 knots; 5.1 m/s)
Visibility: 6 or more miles (10+ km)
Ceiling: at least 12,000 feet AGL
Clouds: few clouds at 3500 feet AGL
scattered clouds at 4000 feet AGL
Weather: no significant weather observed at this time

METAR text: OISS 181250Z 24010KT 9999 FEW035TCU SCT040 24/M01 Q1018 A3007 NOSIG
Conditions at: OISS (SHIRAZ (CIV/AFB), IR) observed 1250 UTC 18 April 2019
Temperature: 24.0°C (75°F)
Dewpoint: -1.0°C (30°F) [RH = 19%]
Pressure (altimeter): 30.06 inches Hg (1018.0 mb)
Winds: from the WSW (240 degrees) at 12 MPH (10 knots; 5.1 m/s)
Visibility: 6 or more miles (10+ km)
Ceiling: at least 12,000 feet AGL
Clouds: few clouds at 3500 feet AGL
scattered clouds at 4000 feet AGL
Weather: no significant weather observed at this time

METAR text: OISS 181225Z 26010KT 9999 FEW035TCU SCT040 23/M02 Q1018 A3007
Conditions at: OISS (SHIRAZ (CIV/AFB), IR) observed 1225 UTC 18 April 2019
Temperature: 23.0°C (73°F)
Dewpoint: -2.0°C (28°F) [RH = 19%]
Pressure (altimeter): 30.06 inches Hg (1018.0 mb)
Winds: from the W (260 degrees) at 12 MPH (10 knots; 5.1 m/s)
Visibility: 6 or more miles (10+ km)
Ceiling: at least 12,000 feet AGL
Clouds: few clouds at 3500 feet AGL
scattered clouds at 4000 feet AGL
Weather: no significant weather observed at this time

METAR text: OISS 181200Z 24004KT 9999 FEW035CB SCT100 BKN200 24/M02 Q1018 A3007
Conditions at: OISS (SHIRAZ (CIV/AFB), IR) observed 1200 UTC 18 April 2019
Temperature: 24.0°C (75°F)
Dewpoint: -2.0°C (28°F) [RH = 18%]
Pressure (altimeter): 30.06 inches Hg (1018.0 mb)
Winds: from the WSW (240 degrees) at 5 MPH (4 knots; 2.1 m/s)
Visibility: 6 or more miles (10+ km)
Ceiling: 20000 feet AGL
Clouds: few clouds at 3500 feet AGL
scattered clouds at 10000 feet AGL
broken clouds at 20000 feet AGL
Weather: no significant weather observed at this time

METAR text: OISS 181150Z 24004KT 9999 FEW035CB SCT100 BKN200 24/M02 Q1018 A3007
Conditions at: OISS (SHIRAZ (CIV/AFB), IR) observed 1150 UTC 18 April 2019
Temperature: 24.0°C (75°F)
Dewpoint: -2.0°C (28°F) [RH = 18%]
Pressure (altimeter): 30.06 inches Hg (1018.0 mb)
Winds: from the WSW (240 degrees) at 5 MPH (4 knots; 2.1 m/s)
Visibility: 6 or more miles (10+ km)
Ceiling: 20000 feet AGL
Clouds: few clouds at 3500 feet AGL
scattered clouds at 10000 feet AGL
broken clouds at 20000 feet AGL
Weather: no significant weather observed at this time

METAR text: OISS 181130Z 24006KT 7000 FEW035CB SCT100 BKN200 24/M02 Q1018 A3008
Conditions at: OISS (SHIRAZ (CIV/AFB), IR) observed 1130 UTC 18 April 2019
Temperature: 24.0°C (75°F)
Dewpoint: -2.0°C (28°F) [RH = 18%]
Pressure (altimeter): 30.06 inches Hg (1018.0 mb)
Winds: from the WSW (240 degrees) at 7 MPH (6 knots; 3.1 m/s)
Visibility: 4 miles ( 7 km)
Ceiling: 20000 feet AGL
Clouds: few clouds at 3500 feet AGL
scattered clouds at 10000 feet AGL
broken clouds at 20000 feet AGL
Weather: no significant weather observed at this time

METAR text: OISS 181120Z 24006KT 7000 FEW035CB SCT100 BKN200 24/M02 Q1018 A3008
Conditions at: OISS (SHIRAZ (CIV/AFB), IR) observed 1120 UTC 18 April 2019
Temperature: 24.0°C (75°F)
Dewpoint: -2.0°C (28°F) [RH = 18%]
Pressure (altimeter): 30.06 inches Hg (1018.0 mb)
Winds: from the WSW (240 degrees) at 7 MPH (6 knots; 3.1 m/s)
Visibility: 4 miles ( 7 km)
Ceiling: 20000 feet AGL
Clouds: few clouds at 3500 feet AGL
scattered clouds at 10000 feet AGL
broken clouds at 20000 feet AGL
Weather: no significant weather observed at this time

METAR text: OISS 181100Z 24008KT 7000 FEW035CB SCT100 BKN200 24/M01 Q1019 A3010
Conditions at: OISS (SHIRAZ (CIV/AFB), IR) observed 1100 UTC 18 April 2019
Temperature: 24.0°C (75°F)
Dewpoint: -1.0°C (30°F) [RH = 19%]
Pressure (altimeter): 30.09 inches Hg (1019.0 mb)
Winds: from the WSW (240 degrees) at 9 MPH (8 knots; 4.1 m/s)
Visibility: 4 miles ( 7 km)
Ceiling: 20000 feet AGL
Clouds: few clouds at 3500 feet AGL
scattered clouds at 10000 feet AGL
broken clouds at 20000 feet AGL
Weather: no significant weather observed at this time

METAR text: OISS 181050Z 24008KT 7000 FEW035CB SCT100 BKN200 24/M01 Q1019 A3010 TEMPO 27010G20KT
Conditions at: OISS (SHIRAZ (CIV/AFB), IR) observed 1050 UTC 18 April 2019
Temperature: 24.0°C (75°F)
Dewpoint: -1.0°C (30°F) [RH = 19%]
Pressure (altimeter): 30.09 inches Hg (1019.0 mb)
Winds: from the WSW (240 degrees) at 9 MPH (8 knots; 4.1 m/s)
Visibility: 4 miles ( 7 km)
Ceiling: 20000 feet AGL
Clouds: few clouds at 3500 feet AGL
scattered clouds at 10000 feet AGL
broken clouds at 20000 feet AGL
Weather: no significant weather observed at this time

METAR text: OISS 181030Z 22012G23KT 7000 FEW035TCU SCT100 BKN200 24/M01 Q1018 A3009
Conditions at: OISS (SHIRAZ (CIV/AFB), IR) observed 1030 UTC 18 April 2019
Temperature: 24.0°C (75°F)
Dewpoint: -1.0°C (30°F) [RH = 19%]
Pressure (altimeter): 30.06 inches Hg (1018.0 mb)
Winds: from the SW (220 degrees) at 14 MPH (12 knots; 6.2 m/s)
gusting to 26 MPH (23 knots; 11.8 m/s)
Visibility: 4 miles ( 7 km)
Ceiling: 20000 feet AGL
Clouds: few clouds at 3500 feet AGL
scattered clouds at 10000 feet AGL
broken clouds at 20000 feet AGL
Weather: no significant weather observed at this time

METAR text: OISS 181020Z 22012G23KT 7000 FEW035TCU SCT100 BKN200 24/M01 Q1018 A3009
Conditions at: OISS (SHIRAZ (CIV/AFB), IR) observed 1020 UTC 18 April 2019
Temperature: 24.0°C (75°F)
Dewpoint: -1.0°C (30°F) [RH = 19%]
Pressure (altimeter): 30.06 inches Hg (1018.0 mb)
Winds: from the SW (220 degrees) at 14 MPH (12 knots; 6.2 m/s)
gusting to 26 MPH (23 knots; 11.8 m/s)
Visibility: 4 miles ( 7 km)
Ceiling: 20000 feet AGL
Clouds: few clouds at 3500 feet AGL
scattered clouds at 10000 feet AGL
broken clouds at 20000 feet AGL
Weather: no significant weather observed at this time

METAR text: OISS 181000Z 04004KT 6000 FEW035TCU SCT100 BKN200 24/02 Q1018 A3009
Conditions at: OISS (SHIRAZ (CIV/AFB), IR) observed 1000 UTC 18 April 2019
Temperature: 24.0°C (75°F)
Dewpoint: 2.0°C (36°F) [RH = 24%]
Pressure (altimeter): 30.06 inches Hg (1018.0 mb)
Winds: from the NE (40 degrees) at 5 MPH (4 knots; 2.1 m/s)
Visibility: 4 miles ( 6 km)
Ceiling: 20000 feet AGL
Clouds: few clouds at 3500 feet AGL
scattered clouds at 10000 feet AGL
broken clouds at 20000 feet AGL
Weather: no significant weather observed at this time

METAR text: OISS 180950Z 04004KT 6000 FEW035TCU SCT100 BKN200 24/02 Q1018 A3009
Conditions at: OISS (SHIRAZ (CIV/AFB), IR) observed 0950 UTC 18 April 2019
Temperature: 24.0°C (75°F)
Dewpoint: 2.0°C (36°F) [RH = 24%]
Pressure (altimeter): 30.06 inches Hg (1018.0 mb)
Winds: from the NE (40 degrees) at 5 MPH (4 knots; 2.1 m/s)
Visibility: 4 miles ( 6 km)
Ceiling: 20000 feet AGL
Clouds: few clouds at 3500 feet AGL
scattered clouds at 10000 feet AGL
broken clouds at 20000 feet AGL
Weather: no significant weather observed at this time

METAR text: OISS 180930Z 09006KT 6000 FEW035TCU BKN100 24/03 Q1019 A3009
Conditions at: OISS (SHIRAZ (CIV/AFB), IR) observed 0930 UTC 18 April 2019
Temperature: 24.0°C (75°F)
Dewpoint: 3.0°C (37°F) [RH = 25%]
Pressure (altimeter): 30.09 inches Hg (1019.0 mb)
Winds: from the E (90 degrees) at 7 MPH (6 knots; 3.1 m/s)
Visibility: 4 miles ( 6 km)
Ceiling: 10000 feet AGL
Clouds: few clouds at 3500 feet AGL
broken clouds at 10000 feet AGL
Weather: no significant weather observed at this time

METAR text: OISS 180920Z 09006KT 6000 FEW035TCU BKN100 24/03 Q1019 A3009
Conditions at: OISS (SHIRAZ (CIV/AFB), IR) observed 0920 UTC 18 April 2019
Temperature: 24.0°C (75°F)
Dewpoint: 3.0°C (37°F) [RH = 25%]
Pressure (altimeter): 30.09 inches Hg (1019.0 mb)
Winds: from the E (90 degrees) at 7 MPH (6 knots; 3.1 m/s)
Visibility: 4 miles ( 6 km)
Ceiling: 10000 feet AGL
Clouds: few clouds at 3500 feet AGL
broken clouds at 10000 feet AGL
Weather: no significant weather observed at this time

METAR text: OISS 180900Z 09004KT 6000 FEW035TCU BKN100 26/04 Q1019 A3011
Conditions at: OISS (SHIRAZ (CIV/AFB), IR) observed 0900 UTC 18 April 2019
Temperature: 26.0°C (79°F)
Dewpoint: 4.0°C (39°F) [RH = 24%]
Pressure (altimeter): 30.09 inches Hg (1019.0 mb)
Winds: from the E (90 degrees) at 5 MPH (4 knots; 2.1 m/s)
Visibility: 4 miles ( 6 km)
Ceiling: 10000 feet AGL
Clouds: few clouds at 3500 feet AGL
broken clouds at 10000 feet AGL
Weather: no significant weather observed at this time

METAR text: OISS 180850Z 09004KT 6000 FEW035TCU BKN100 26/04 Q1019 A3011 NOSIG
Conditions at: OISS (SHIRAZ (CIV/AFB), IR) observed 0850 UTC 18 April 2019
Temperature: 26.0°C (79°F)
Dewpoint: 4.0°C (39°F) [RH = 24%]
Pressure (altimeter): 30.09 inches Hg (1019.0 mb)
Winds: from the E (90 degrees) at 5 MPH (4 knots; 2.1 m/s)
Visibility: 4 miles ( 6 km)
Ceiling: 10000 feet AGL
Clouds: few clouds at 3500 feet AGL
broken clouds at 10000 feet AGL
Weather: no significant weather observed at this time

METAR text: OISS 180830Z 00000KT 6000 FEW035TCU BKN180 24/01 Q1019 A3011
Conditions at: OISS (SHIRAZ (CIV/AFB), IR) observed 0830 UTC 18 April 2019
Temperature: 24.0°C (75°F)
Dewpoint: 1.0°C (34°F) [RH = 22%]
Pressure (altimeter): 30.09 inches Hg (1019.0 mb)
Winds: calm
Visibility: 4 miles ( 6 km)
Ceiling: 18000 feet AGL
Clouds: few clouds at 3500 feet AGL
broken clouds at 18000 feet AGL
Weather: no significant weather observed at this time

METAR text: OISS 180825Z 00000KT 6000 FEW035TCU BKN180 24/01 Q1019 A3011
Conditions at: OISS (SHIRAZ (CIV/AFB), IR) observed 0825 UTC 18 April 2019
Temperature: 24.0°C (75°F)
Dewpoint: 1.0°C (34°F) [RH = 22%]
Pressure (altimeter): 30.09 inches Hg (1019.0 mb)
Winds: calm
Visibility: 4 miles ( 6 km)
Ceiling: 18000 feet AGL
Clouds: few clouds at 3500 feet AGL
broken clouds at 18000 feet AGL
Weather: no significant weather observed at this time

METAR text: OISS 180800Z 00000KT 6000 FEW035CB FEW040 BKN180 24/M01 Q1019 A3012
Conditions at: OISS (SHIRAZ (CIV/AFB), IR) observed 0800 UTC 18 April 2019
Temperature: 24.0°C (75°F)
Dewpoint: -1.0°C (30°F) [RH = 19%]
Pressure (altimeter): 30.09 inches Hg (1019.0 mb)
Winds: calm
Visibility: 4 miles ( 6 km)
Ceiling: 18000 feet AGL
Clouds: few clouds at 3500 feet AGL
few clouds at 4000 feet AGL
broken clouds at 18000 feet AGL
Weather: no significant weather observed at this time

METAR text: OISS 180750Z 00000KT 6000 FEW035CB FEW040 BKN180 24/M01 Q1019 A3012 NOSIG
Conditions at: OISS (SHIRAZ (CIV/AFB), IR) observed 0750 UTC 18 April 2019
Temperature: 24.0°C (75°F)
Dewpoint: -1.0°C (30°F) [RH = 19%]
Pressure (altimeter): 30.09 inches Hg (1019.0 mb)
Winds: calm
Visibility: 4 miles ( 6 km)
Ceiling: 18000 feet AGL
Clouds: few clouds at 3500 feet AGL
few clouds at 4000 feet AGL
broken clouds at 18000 feet AGL
Weather: no significant weather observed at this time

METAR text: OISS 180730Z 28008KT 6000 FEW035CB SCT040 BKN180 22/00 Q1021 A3015
Conditions at: OISS (SHIRAZ (CIV/AFB), IR) observed 0730 UTC 18 April 2019
Temperature: 22.0°C (72°F)
Dewpoint: 0.0°C (32°F) [RH = 23%]
Pressure (altimeter): 30.15 inches Hg (1021.0 mb)
Winds: from the W (280 degrees) at 9 MPH (8 knots; 4.1 m/s)
Visibility: 4 miles ( 6 km)
Ceiling: 18000 feet AGL
Clouds: few clouds at 3500 feet AGL
scattered clouds at 4000 feet AGL
broken clouds at 18000 feet AGL
Weather: no significant weather observed at this time

METAR text: OISS 180720Z 28008KT 6000 FEW035CB SCT040 BKN180 22/00 Q1021 A3015
Conditions at: OISS (SHIRAZ (CIV/AFB), IR) observed 0720 UTC 18 April 2019
Temperature: 22.0°C (72°F)
Dewpoint: 0.0°C (32°F) [RH = 23%]
Pressure (altimeter): 30.15 inches Hg (1021.0 mb)
Winds: from the W (280 degrees) at 9 MPH (8 knots; 4.1 m/s)
Visibility: 4 miles ( 6 km)
Ceiling: 18000 feet AGL
Clouds: few clouds at 3500 feet AGL
scattered clouds at 4000 feet AGL
broken clouds at 18000 feet AGL
Weather: no significant weather observed at this time

METAR text: OISS 180700Z 25016KT 6000 FEW035CB SCT040 BKN180 22/M01 Q1021 A3017
Conditions at: OISS (SHIRAZ (CIV/AFB), IR) observed 0700 UTC 18 April 2019
Temperature: 22.0°C (72°F)
Dewpoint: -1.0°C (30°F) [RH = 21%]
Pressure (altimeter): 30.15 inches Hg (1021.0 mb)
Winds: from the WSW (250 degrees) at 18 MPH (16 knots; 8.2 m/s)
Visibility: 4 miles ( 6 km)
Ceiling: 18000 feet AGL
Clouds: few clouds at 3500 feet AGL
scattered clouds at 4000 feet AGL
broken clouds at 18000 feet AGL
Weather: no significant weather observed at this time

METAR text: OISS 180650Z 25016KT 6000 FEW035CB SCT040 BKN180 22/M01 Q1021 A3017 NOSIG
Conditions at: OISS (SHIRAZ (CIV/AFB), IR) observed 0650 UTC 18 April 2019
Temperature: 22.0°C (72°F)
Dewpoint: -1.0°C (30°F) [RH = 21%]
Pressure (altimeter): 30.15 inches Hg (1021.0 mb)
Winds: from the WSW (250 degrees) at 18 MPH (16 knots; 8.2 m/s)
Visibility: 4 miles ( 6 km)
Ceiling: 18000 feet AGL
Clouds: few clouds at 3500 feet AGL
scattered clouds at 4000 feet AGL
broken clouds at 18000 feet AGL
Weather: no significant weather observed at this time

METAR text: OISS 180630Z 18004KT 7000 NSC 23/M02 Q1021 A3017
Conditions at: OISS (SHIRAZ (CIV/AFB), IR) observed 0630 UTC 18 April 2019
Temperature: 23.0°C (73°F)
Dewpoint: -2.0°C (28°F) [RH = 19%]
Pressure (altimeter): 30.15 inches Hg (1021.0 mb)
Winds: from the S (180 degrees) at 5 MPH (4 knots; 2.1 m/s)
Visibility: 4 miles ( 7 km)
Ceiling: at least 12,000 feet AGL
Clouds: sky clear below 12,000 feet AGL
Weather: no significant weather observed at this time

METAR text: OISS 180620Z 18004KT 7000 NSC 23/M02 Q1021 A3017
Conditions at: OISS (SHIRAZ (CIV/AFB), IR) observed 0620 UTC 18 April 2019
Temperature: 23.0°C (73°F)
Dewpoint: -2.0°C (28°F) [RH = 19%]
Pressure (altimeter): 30.15 inches Hg (1021.0 mb)
Winds: from the S (180 degrees) at 5 MPH (4 knots; 2.1 m/s)
Visibility: 4 miles ( 7 km)
Ceiling: at least 12,000 feet AGL
Clouds: sky clear below 12,000 feet AGL
Weather: no significant weather observed at this time

METAR text: OISS 180600Z 12004KT 7000 NSC 22/M02 Q1021 A3017
Conditions at: OISS (SHIRAZ (CIV/AFB), IR) observed 0600 UTC 18 April 2019
Temperature: 22.0°C (72°F)
Dewpoint: -2.0°C (28°F) [RH = 20%]
Pressure (altimeter): 30.15 inches Hg (1021.0 mb)
Winds: from the ESE (120 degrees) at 5 MPH (4 knots; 2.1 m/s)
Visibility: 4 miles ( 7 km)
Ceiling: at least 12,000 feet AGL
Clouds: sky clear below 12,000 feet AGL
Weather: no significant weather observed at this time

METAR text: OISS 180530Z VRB02KT 7000 NSC 20/06 Q1021 A3017
Conditions at: OISS (SHIRAZ (CIV/AFB), IR) observed 0530 UTC 18 April 2019
Temperature: 20.0°C (68°F)
Dewpoint: 6.0°C (43°F) [RH = 40%]
Pressure (altimeter): 30.15 inches Hg (1021.0 mb)
Winds: variable direction winds at 2 MPH (2 knots; 1.0 m/s)
Visibility: 4 miles ( 7 km)
Ceiling: at least 12,000 feet AGL
Clouds: sky clear below 12,000 feet AGL
Weather: no significant weather observed at this time

METAR text: OISS 180520Z VRB02KT 7000 NSC 20/06 Q1021 A3017
Conditions at: OISS (SHIRAZ (CIV/AFB), IR) observed 0520 UTC 18 April 2019
Temperature: 20.0°C (68°F)
Dewpoint: 6.0°C (43°F) [RH = 40%]
Pressure (altimeter): 30.15 inches Hg (1021.0 mb)
Winds: variable direction winds at 2 MPH (2 knots; 1.0 m/s)
Visibility: 4 miles ( 7 km)
Ceiling: at least 12,000 feet AGL
Clouds: sky clear below 12,000 feet AGL
Weather: no significant weather observed at this time

METAR text: OISS 180500Z 00000KT 7000 NSC 20/06 Q1021 A3016
Conditions at: OISS (SHIRAZ (CIV/AFB), IR) observed 0500 UTC 18 April 2019
Temperature: 20.0°C (68°F)
Dewpoint: 6.0°C (43°F) [RH = 40%]
Pressure (altimeter): 30.15 inches Hg (1021.0 mb)
Winds: calm
Visibility: 4 miles ( 7 km)
Ceiling: at least 12,000 feet AGL
Clouds: sky clear below 12,000 feet AGL
Weather: no significant weather observed at this time

METAR text: OISS 180450Z 00000KT 7000 NSC 20/06 Q1021 A3016 NOSIG
Conditions at: OISS (SHIRAZ (CIV/AFB), IR) observed 0450 UTC 18 April 2019
Temperature: 20.0°C (68°F)
Dewpoint: 6.0°C (43°F) [RH = 40%]
Pressure (altimeter): 30.15 inches Hg (1021.0 mb)
Winds: calm
Visibility: 4 miles ( 7 km)
Ceiling: at least 12,000 feet AGL
Clouds: sky clear below 12,000 feet AGL
Weather: no significant weather observed at this time

METAR text: OISS 180430Z 00000KT 8000 NSC 18/07 Q1021 A3015
Conditions at: OISS (SHIRAZ (CIV/AFB), IR) observed 0430 UTC 18 April 2019
Temperature: 18.0°C (64°F)
Dewpoint: 7.0°C (45°F) [RH = 49%]
Pressure (altimeter): 30.15 inches Hg (1021.0 mb)
Winds: calm
Visibility: 5 miles ( 8 km)
Ceiling: at least 12,000 feet AGL
Clouds: sky clear below 12,000 feet AGL
Weather: no significant weather observed at this time

METAR text: OISS 180425Z 00000KT 8000 NSC 18/07 Q1021 A3015
Conditions at: OISS (SHIRAZ (CIV/AFB), IR) observed 0425 UTC 18 April 2019
Temperature: 18.0°C (64°F)
Dewpoint: 7.0°C (45°F) [RH = 49%]
Pressure (altimeter): 30.15 inches Hg (1021.0 mb)
Winds: calm
Visibility: 5 miles ( 8 km)
Ceiling: at least 12,000 feet AGL
Clouds: sky clear below 12,000 feet AGL
Weather: no significant weather observed at this time

METAR text: OISS 180400Z 00000KT 8000 NSC 15/07 Q1021 A3015
Conditions at: OISS (SHIRAZ (CIV/AFB), IR) observed 0400 UTC 18 April 2019
Temperature: 15.0°C (59°F)
Dewpoint: 7.0°C (45°F) [RH = 59%]
Pressure (altimeter): 30.15 inches Hg (1021.0 mb)
Winds: calm
Visibility: 5 miles ( 8 km)
Ceiling: at least 12,000 feet AGL
Clouds: sky clear below 12,000 feet AGL
Weather: no significant weather observed at this time

METAR text: OISS 180350Z 00000KT 8000 NSC 15/07 Q1021 A3015 NOSIG
Conditions at: OISS (SHIRAZ (CIV/AFB), IR) observed 0350 UTC 18 April 2019
Temperature: 15.0°C (59°F)
Dewpoint: 7.0°C (45°F) [RH = 59%]
Pressure (altimeter): 30.15 inches Hg (1021.0 mb)
Winds: calm
Visibility: 5 miles ( 8 km)
Ceiling: at least 12,000 feet AGL
Clouds: sky clear below 12,000 feet AGL
Weather: no significant weather observed at this time

METAR text: OISS 180330Z 00000KT 8000 NSC 13/07 Q1021 A3015
Conditions at: OISS (SHIRAZ (CIV/AFB), IR) observed 0330 UTC 18 April 2019
Temperature: 13.0°C (55°F)
Dewpoint: 7.0°C (45°F) [RH = 67%]
Pressure (altimeter): 30.15 inches Hg (1021.0 mb)
Winds: calm
Visibility: 5 miles ( 8 km)
Ceiling: at least 12,000 feet AGL
Clouds: sky clear below 12,000 feet AGL
Weather: no significant weather observed at this time

METAR text: OISS 180320Z 00000KT 8000 NSC 13/07 Q1021 A3015
Conditions at: OISS (SHIRAZ (CIV/AFB), IR) observed 0320 UTC 18 April 2019
Temperature: 13.0°C (55°F)
Dewpoint: 7.0°C (45°F) [RH = 67%]
Pressure (altimeter): 30.15 inches Hg (1021.0 mb)
Winds: calm
Visibility: 5 miles ( 8 km)
Ceiling: at least 12,000 feet AGL
Clouds: sky clear below 12,000 feet AGL
Weather: no significant weather observed at this time

METAR text: OISS 180300Z 00000KT 8000 NSC 10/06 Q1020 A3014
Conditions at: OISS (SHIRAZ (CIV/AFB), IR) observed 0300 UTC 18 April 2019
Temperature: 10.0°C (50°F)
Dewpoint: 6.0°C (43°F) [RH = 76%]
Pressure (altimeter): 30.12 inches Hg (1020.0 mb)
Winds: calm
Visibility: 5 miles ( 8 km)
Ceiling: at least 12,000 feet AGL
Clouds: sky clear below 12,000 feet AGL
Weather: no significant weather observed at this time

METAR text: OISS 180250Z 00000KT 8000 NSC 10/06 Q1020 A3014 NOSIG
Conditions at: OISS (SHIRAZ (CIV/AFB), IR) observed 0250 UTC 18 April 2019
Temperature: 10.0°C (50°F)
Dewpoint: 6.0°C (43°F) [RH = 76%]
Pressure (altimeter): 30.12 inches Hg (1020.0 mb)
Winds: calm
Visibility: 5 miles ( 8 km)
Ceiling: at least 12,000 feet AGL
Clouds: sky clear below 12,000 feet AGL
Weather: no significant weather observed at this time

METAR text: OISS 180230Z 00000KT 8000 FEW040 10/06 Q1020 A3014
Conditions at: OISS (SHIRAZ (CIV/AFB), IR) observed 0230 UTC 18 April 2019
Temperature: 10.0°C (50°F)
Dewpoint: 6.0°C (43°F) [RH = 76%]
Pressure (altimeter): 30.12 inches Hg (1020.0 mb)
Winds: calm
Visibility: 5 miles ( 8 km)
Ceiling: at least 12,000 feet AGL
Clouds: few clouds at 4000 feet AGL
Weather: no significant weather observed at this time

METAR text: OISS 180220Z 00000KT 8000 FEW040 10/06 Q1020 A3014
Conditions at: OISS (SHIRAZ (CIV/AFB), IR) observed 0220 UTC 18 April 2019
Temperature: 10.0°C (50°F)
Dewpoint: 6.0°C (43°F) [RH = 76%]
Pressure (altimeter): 30.12 inches Hg (1020.0 mb)
Winds: calm
Visibility: 5 miles ( 8 km)
Ceiling: at least 12,000 feet AGL
Clouds: few clouds at 4000 feet AGL
Weather: no significant weather observed at this time

METAR text: OISS 180200Z 21004KT 7000 FEW040 SCT200 09/06 Q1020 A3013
Conditions at: OISS (SHIRAZ (CIV/AFB), IR) observed 0200 UTC 18 April 2019
Temperature: 9.0°C (48°F)
Dewpoint: 6.0°C (43°F) [RH = 81%]
Pressure (altimeter): 30.12 inches Hg (1020.0 mb)
Winds: from the SSW (210 degrees) at 5 MPH (4 knots; 2.1 m/s)
Visibility: 4 miles ( 7 km)
Ceiling: at least 12,000 feet AGL
Clouds: few clouds at 4000 feet AGL
scattered clouds at 20000 feet AGL
Weather: no significant weather observed at this time

METAR text: OISS 180150Z 21004KT 7000 FEW040 SCT200 09/06 Q1020 A3013
Conditions at: OISS (SHIRAZ (CIV/AFB), IR) observed 0150 UTC 18 April 2019
Temperature: 9.0°C (48°F)
Dewpoint: 6.0°C (43°F) [RH = 81%]
Pressure (altimeter): 30.12 inches Hg (1020.0 mb)
Winds: from the SSW (210 degrees) at 5 MPH (4 knots; 2.1 m/s)
Visibility: 4 miles ( 7 km)
Ceiling: at least 12,000 feet AGL
Clouds: few clouds at 4000 feet AGL
scattered clouds at 20000 feet AGL
Weather: no significant weather observed at this time

METAR text: OISS 180130Z 00000KT 8000 FEW040 SCT200 09/06 Q1020 A3012
Conditions at: OISS (SHIRAZ (CIV/AFB), IR) observed 0130 UTC 18 April 2019
Temperature: 9.0°C (48°F)
Dewpoint: 6.0°C (43°F) [RH = 81%]
Pressure (altimeter): 30.12 inches Hg (1020.0 mb)
Winds: calm
Visibility: 5 miles ( 8 km)
Ceiling: at least 12,000 feet AGL
Clouds: few clouds at 4000 feet AGL
scattered clouds at 20000 feet AGL
Weather: no significant weather observed at this time

METAR text: OISS 180120Z 00000KT 8000 FEW040 SCT200 09/06 Q1020 A3012
Conditions at: OISS (SHIRAZ (CIV/AFB), IR) observed 0120 UTC 18 April 2019
Temperature: 9.0°C (48°F)
Dewpoint: 6.0°C (43°F) [RH = 81%]
Pressure (altimeter): 30.12 inches Hg (1020.0 mb)
Winds: calm
Visibility: 5 miles ( 8 km)
Ceiling: at least 12,000 feet AGL
Clouds: few clouds at 4000 feet AGL
scattered clouds at 20000 feet AGL
Weather: no significant weather observed at this time

METAR text: OISS 180100Z 00000KT CAVOK 09/05 Q1019 A3011
Conditions at: OISS (SHIRAZ (CIV/AFB), IR) observed 0100 UTC 18 April 2019
Temperature: 9.0°C (48°F)
Dewpoint: 5.0°C (41°F) [RH = 76%]
Pressure (altimeter): 30.09 inches Hg (1019.0 mb)
Winds: calm
Visibility: 6 or more miles (10+ km)
Ceiling: ceiling and visibility are OK
Clouds: unknown
Weather: no significant weather observed at this time

METAR text: OISS 180050Z 00000KT CAVOK 09/05 Q1019 A3011
Conditions at: OISS (SHIRAZ (CIV/AFB), IR) observed 0050 UTC 18 April 2019
Temperature: 9.0°C (48°F)
Dewpoint: 5.0°C (41°F) [RH = 76%]
Pressure (altimeter): 30.09 inches Hg (1019.0 mb)
Winds: calm
Visibility: 6 or more miles (10+ km)
Ceiling: ceiling and visibility are OK
Clouds: unknown
Weather: no significant weather observed at this time

METAR text: OISS 180030Z 00000KT CAVOK 11/06 Q1019 A3011
Conditions at: OISS (SHIRAZ (CIV/AFB), IR) observed 0030 UTC 18 April 2019
Temperature: 11.0°C (52°F)
Dewpoint: 6.0°C (43°F) [RH = 71%]
Pressure (altimeter): 30.09 inches Hg (1019.0 mb)
Winds: calm
Visibility: 6 or more miles (10+ km)
Ceiling: ceiling and visibility are OK
Clouds: unknown
Weather: no significant weather observed at this time

METAR text: OISS 180020Z 00000KT CAVOK 11/06 Q1019 A3011
Conditions at: OISS (SHIRAZ (CIV/AFB), IR) observed 0020 UTC 18 April 2019
Temperature: 11.0°C (52°F)
Dewpoint: 6.0°C (43°F) [RH = 71%]
Pressure (altimeter): 30.09 inches Hg (1019.0 mb)
Winds: calm
Visibility: 6 or more miles (10+ km)
Ceiling: ceiling and visibility are OK
Clouds: unknown
Weather: no significant weather observed at this time

METAR text: OISS 180000Z 00000KT CAVOK 10/05 Q1019 A3010
Conditions at: OISS (SHIRAZ (CIV/AFB), IR) observed 0000 UTC 18 April 2019
Temperature: 10.0°C (50°F)
Dewpoint: 5.0°C (41°F) [RH = 71%]
Pressure (altimeter): 30.09 inches Hg (1019.0 mb)
Winds: calm
Visibility: 6 or more miles (10+ km)
Ceiling: ceiling and visibility are OK
Clouds: unknown
Weather: no significant weather observed at this time

METAR text: OISS 172350Z 00000KT CAVOK 10/05 Q1019 A3010
Conditions at: OISS (SHIRAZ (CIV/AFB), IR) observed 2350 UTC 17 April 2019
Temperature: 10.0°C (50°F)
Dewpoint: 5.0°C (41°F) [RH = 71%]
Pressure (altimeter): 30.09 inches Hg (1019.0 mb)
Winds: calm
Visibility: 6 or more miles (10+ km)
Ceiling: ceiling and visibility are OK
Clouds: unknown
Weather: no significant weather observed at this time

METAR text: OISS 172330Z 00000KT CAVOK 10/05 Q1019 A3010
Conditions at: OISS (SHIRAZ (CIV/AFB), IR) observed 2330 UTC 17 April 2019
Temperature: 10.0°C (50°F)
Dewpoint: 5.0°C (41°F) [RH = 71%]
Pressure (altimeter): 30.09 inches Hg (1019.0 mb)
Winds: calm
Visibility: 6 or more miles (10+ km)
Ceiling: ceiling and visibility are OK
Clouds: unknown
Weather: no significant weather observed at this time

METAR text: OISS 172320Z 00000KT CAVOK 10/05 Q1019 A3010
Conditions at: OISS (SHIRAZ (CIV/AFB), IR) observed 2320 UTC 17 April 2019
Temperature: 10.0°C (50°F)
Dewpoint: 5.0°C (41°F) [RH = 71%]
Pressure (altimeter): 30.09 inches Hg (1019.0 mb)
Winds: calm
Visibility: 6 or more miles (10+ km)
Ceiling: ceiling and visibility are OK
Clouds: unknown
Weather: no significant weather observed at this time

METAR text: OISS 172300Z 00000KT CAVOK 10/05 Q1019 A3010
Conditions at: OISS (SHIRAZ (CIV/AFB), IR) observed 2300 UTC 17 April 2019
Temperature: 10.0°C (50°F)
Dewpoint: 5.0°C (41°F) [RH = 71%]
Pressure (altimeter): 30.09 inches Hg (1019.0 mb)
Winds: calm
Visibility: 6 or more miles (10+ km)
Ceiling: ceiling and visibility are OK
Clouds: unknown
Weather: no significant weather observed at this time

METAR text: OISS 172250Z 00000KT CAVOK 10/05 Q1019 A3010
Conditions at: OISS (SHIRAZ (CIV/AFB), IR) observed 2250 UTC 17 April 2019
Temperature: 10.0°C (50°F)
Dewpoint: 5.0°C (41°F) [RH = 71%]
Pressure (altimeter): 30.09 inches Hg (1019.0 mb)
Winds: calm
Visibility: 6 or more miles (10+ km)
Ceiling: ceiling and visibility are OK
Clouds: unknown
Weather: no significant weather observed at this time

METAR text: OISS 172230Z 00000KT CAVOK 12/05 Q1019 A3010
Conditions at: OISS (SHIRAZ (CIV/AFB), IR) observed 2230 UTC 17 April 2019
Temperature: 12.0°C (54°F)
Dewpoint: 5.0°C (41°F) [RH = 62%]
Pressure (altimeter): 30.09 inches Hg (1019.0 mb)
Winds: calm
Visibility: 6 or more miles (10+ km)
Ceiling: ceiling and visibility are OK
Clouds: unknown
Weather: no significant weather observed at this time

METAR text: OISS 172220Z 00000KT CAVOK 12/05 Q1019 A3010
Conditions at: OISS (SHIRAZ (CIV/AFB), IR) observed 2220 UTC 17 April 2019
Temperature: 12.0°C (54°F)
Dewpoint: 5.0°C (41°F) [RH = 62%]
Pressure (altimeter): 30.09 inches Hg (1019.0 mb)
Winds: calm
Visibility: 6 or more miles (10+ km)
Ceiling: ceiling and visibility are OK
Clouds: unknown
Weather: no significant weather observed at this time

METAR text: OISS 172200Z 16004KT CAVOK 11/05 Q1019 A3010
Conditions at: OISS (SHIRAZ (CIV/AFB), IR) observed 2200 UTC 17 April 2019
Temperature: 11.0°C (52°F)
Dewpoint: 5.0°C (41°F) [RH = 66%]
Pressure (altimeter): 30.09 inches Hg (1019.0 mb)
Winds: from the SSE (160 degrees) at 5 MPH (4 knots; 2.1 m/s)
Visibility: 6 or more miles (10+ km)
Ceiling: ceiling and visibility are OK
Clouds: unknown
Weather: no significant weather observed at this time

METAR text: OISS 172150Z 16004KT CAVOK 11/05 Q1019 A3010
Conditions at: OISS (SHIRAZ (CIV/AFB), IR) observed 2150 UTC 17 April 2019
Temperature: 11.0°C (52°F)
Dewpoint: 5.0°C (41°F) [RH = 66%]
Pressure (altimeter): 30.09 inches Hg (1019.0 mb)
Winds: from the SSE (160 degrees) at 5 MPH (4 knots; 2.1 m/s)
Visibility: 6 or more miles (10+ km)
Ceiling: ceiling and visibility are OK
Clouds: unknown
Weather: no significant weather observed at this time

METAR text: OISS 172130Z 00000KT CAVOK 13/06 Q1019 A3010
Conditions at: OISS (SHIRAZ (CIV/AFB), IR) observed 2130 UTC 17 April 2019
Temperature: 13.0°C (55°F)
Dewpoint: 6.0°C (43°F) [RH = 62%]
Pressure (altimeter): 30.09 inches Hg (1019.0 mb)
Winds: calm
Visibility: 6 or more miles (10+ km)
Ceiling: ceiling and visibility are OK
Clouds: unknown
Weather: no significant weather observed at this time

METAR text: OISS 172120Z 00000KT CAVOK 13/06 Q1019 A3010
Conditions at: OISS (SHIRAZ (CIV/AFB), IR) observed 2120 UTC 17 April 2019
Temperature: 13.0°C (55°F)
Dewpoint: 6.0°C (43°F) [RH = 62%]
Pressure (altimeter): 30.09 inches Hg (1019.0 mb)
Winds: calm
Visibility: 6 or more miles (10+ km)
Ceiling: ceiling and visibility are OK
Clouds: unknown
Weather: no significant weather observed at this time

METAR text: OISS 172100Z 00000KT CAVOK 12/05 Q1019 A3011
Conditions at: OISS (SHIRAZ (CIV/AFB), IR) observed 2100 UTC 17 April 2019
Temperature: 12.0°C (54°F)
Dewpoint: 5.0°C (41°F) [RH = 62%]
Pressure (altimeter): 30.09 inches Hg (1019.0 mb)
Winds: calm
Visibility: 6 or more miles (10+ km)
Ceiling: ceiling and visibility are OK
Clouds: unknown
Weather: no significant weather observed at this time

METAR text: OISS 172050Z 00000KT CAVOK 12/05 Q1019 A3011
Conditions at: OISS (SHIRAZ (CIV/AFB), IR) observed 2050 UTC 17 April 2019
Temperature: 12.0°C (54°F)
Dewpoint: 5.0°C (41°F) [RH = 62%]
Pressure (altimeter): 30.09 inches Hg (1019.0 mb)
Winds: calm
Visibility: 6 or more miles (10+ km)
Ceiling: ceiling and visibility are OK
Clouds: unknown
Weather: no significant weather observed at this time

METAR text: OISS 172030Z 00000KT CAVOK 12/05 Q1019 A3011
Conditions at: OISS (SHIRAZ (CIV/AFB), IR) observed 2030 UTC 17 April 2019
Temperature: 12.0°C (54°F)
Dewpoint: 5.0°C (41°F) [RH = 62%]
Pressure (altimeter): 30.09 inches Hg (1019.0 mb)
Winds: calm
Visibility: 6 or more miles (10+ km)
Ceiling: ceiling and visibility are OK
Clouds: unknown
Weather: no significant weather observed at this time

METAR text: OISS 172020Z 00000KT CAVOK 12/05 Q1019 A3011
Conditions at: OISS (SHIRAZ (CIV/AFB), IR) observed 2020 UTC 17 April 2019
Temperature: 12.0°C (54°F)
Dewpoint: 5.0°C (41°F) [RH = 62%]
Pressure (altimeter): 30.09 inches Hg (1019.0 mb)
Winds: calm
Visibility: 6 or more miles (10+ km)
Ceiling: ceiling and visibility are OK
Clouds: unknown
Weather: no significant weather observed at this time

METAR text: OISS 172000Z 00000KT CAVOK 14/04 Q1019 A3011
Conditions at: OISS (SHIRAZ (CIV/AFB), IR) observed 2000 UTC 17 April 2019
Temperature: 14.0°C (57°F)
Dewpoint: 4.0°C (39°F) [RH = 51%]
Pressure (altimeter): 30.09 inches Hg (1019.0 mb)
Winds: calm
Visibility: 6 or more miles (10+ km)
Ceiling: ceiling and visibility are OK
Clouds: unknown
Weather: no significant weather observed at this time

METAR text: OISS 171950Z 00000KT CAVOK 14/04 Q1019 A3011
Conditions at: OISS (SHIRAZ (CIV/AFB), IR) observed 1950 UTC 17 April 2019
Temperature: 14.0°C (57°F)
Dewpoint: 4.0°C (39°F) [RH = 51%]
Pressure (altimeter): 30.09 inches Hg (1019.0 mb)
Winds: calm
Visibility: 6 or more miles (10+ km)
Ceiling: ceiling and visibility are OK
Clouds: unknown
Weather: no significant weather observed at this time

METAR text: OISS 171930Z 30004KT CAVOK 15/04 Q1019 A3012
Conditions at: OISS (SHIRAZ (CIV/AFB), IR) observed 1930 UTC 17 April 2019
Temperature: 15.0°C (59°F)
Dewpoint: 4.0°C (39°F) [RH = 48%]
Pressure (altimeter): 30.09 inches Hg (1019.0 mb)
Winds: from the WNW (300 degrees) at 5 MPH (4 knots; 2.1 m/s)
Visibility: 6 or more miles (10+ km)
Ceiling: ceiling and visibility are OK
Clouds: unknown
Weather: no significant weather observed at this time

METAR text: OISS 171920Z 30004KT CAVOK 15/04 Q1019 A3012
Conditions at: OISS (SHIRAZ (CIV/AFB), IR) observed 1920 UTC 17 April 2019
Temperature: 15.0°C (59°F)
Dewpoint: 4.0°C (39°F) [RH = 48%]
Pressure (altimeter): 30.09 inches Hg (1019.0 mb)
Winds: from the WNW (300 degrees) at 5 MPH (4 knots; 2.1 m/s)
Visibility: 6 or more miles (10+ km)
Ceiling: ceiling and visibility are OK
Clouds: unknown
Weather: no significant weather observed at this time

METAR text: OISS 171900Z 00000KT CAVOK 14/03 Q1020 A3013
Conditions at: OISS (SHIRAZ (CIV/AFB), IR) observed 1900 UTC 17 April 2019
Temperature: 14.0°C (57°F)
Dewpoint: 3.0°C (37°F) [RH = 47%]
Pressure (altimeter): 30.12 inches Hg (1020.0 mb)
Winds: calm
Visibility: 6 or more miles (10+ km)
Ceiling: ceiling and visibility are OK
Clouds: unknown
Weather: no significant weather observed at this time

METAR text: OISS 171850Z 00000KT CAVOK 14/03 Q1020 A3013
Conditions at: OISS (SHIRAZ (CIV/AFB), IR) observed 1850 UTC 17 April 2019
Temperature: 14.0°C (57°F)
Dewpoint: 3.0°C (37°F) [RH = 47%]
Pressure (altimeter): 30.12 inches Hg (1020.0 mb)
Winds: calm
Visibility: 6 or more miles (10+ km)
Ceiling: ceiling and visibility are OK
Clouds: unknown
Weather: no significant weather observed at this time

METAR text: OISS 171830Z 00000KT CAVOK 15/03 Q1020 A3013
Conditions at: OISS (SHIRAZ (CIV/AFB), IR) observed 1830 UTC 17 April 2019
Temperature: 15.0°C (59°F)
Dewpoint: 3.0°C (37°F) [RH = 44%]
Pressure (altimeter): 30.12 inches Hg (1020.0 mb)
Winds: calm
Visibility: 6 or more miles (10+ km)
Ceiling: ceiling and visibility are OK
Clouds: unknown
Weather: no significant weather observed at this time

METAR text: OISS 171820Z 00000KT CAVOK 15/03 Q1020 A3013
Conditions at: OISS (SHIRAZ (CIV/AFB), IR) observed 1820 UTC 17 April 2019
Temperature: 15.0°C (59°F)
Dewpoint: 3.0°C (37°F) [RH = 44%]
Pressure (altimeter): 30.12 inches Hg (1020.0 mb)
Winds: calm
Visibility: 6 or more miles (10+ km)
Ceiling: ceiling and visibility are OK
Clouds: unknown
Weather: no significant weather observed at this time

METAR text: OISS 171800Z 00000KT CAVOK 16/03 Q1019 A3012
Conditions at: OISS (SHIRAZ (CIV/AFB), IR) observed 1800 UTC 17 April 2019
Temperature: 16.0°C (61°F)
Dewpoint: 3.0°C (37°F) [RH = 42%]
Pressure (altimeter): 30.09 inches Hg (1019.0 mb)
Winds: calm
Visibility: 6 or more miles (10+ km)
Ceiling: ceiling and visibility are OK
Clouds: unknown
Weather: no significant weather observed at this time

METAR text: OISS 171750Z 00000KT CAVOK 16/03 Q1019 A3012
Conditions at: OISS (SHIRAZ (CIV/AFB), IR) observed 1750 UTC 17 April 2019
Temperature: 16.0°C (61°F)
Dewpoint: 3.0°C (37°F) [RH = 42%]
Pressure (altimeter): 30.09 inches Hg (1019.0 mb)
Winds: calm
Visibility: 6 or more miles (10+ km)
Ceiling: ceiling and visibility are OK
Clouds: unknown
Weather: no significant weather observed at this time

METAR text: OISS 171730Z 00000KT CAVOK 16/03 Q1019 A3011
Conditions at: OISS (SHIRAZ (CIV/AFB), IR) observed 1730 UTC 17 April 2019
Temperature: 16.0°C (61°F)
Dewpoint: 3.0°C (37°F) [RH = 42%]
Pressure (altimeter): 30.09 inches Hg (1019.0 mb)
Winds: calm
Visibility: 6 or more miles (10+ km)
Ceiling: ceiling and visibility are OK
Clouds: unknown
Weather: no significant weather observed at this time

METAR text: OISS 171720Z 00000KT CAVOK 16/03 Q1019 A3011
Conditions at: OISS (SHIRAZ (CIV/AFB), IR) observed 1720 UTC 17 April 2019
Temperature: 16.0°C (61°F)
Dewpoint: 3.0°C (37°F) [RH = 42%]
Pressure (altimeter): 30.09 inches Hg (1019.0 mb)
Winds: calm
Visibility: 6 or more miles (10+ km)
Ceiling: ceiling and visibility are OK
Clouds: unknown
Weather: no significant weather observed at this time

METAR text: OISS 171700Z 28004KT CAVOK 19/01 Q1019 A3012
Conditions at: OISS (SHIRAZ (CIV/AFB), IR) observed 1700 UTC 17 April 2019
Temperature: 19.0°C (66°F)
Dewpoint: 1.0°C (34°F) [RH = 30%]
Pressure (altimeter): 30.09 inches Hg (1019.0 mb)
Winds: from the W (280 degrees) at 5 MPH (4 knots; 2.1 m/s)
Visibility: 6 or more miles (10+ km)
Ceiling: ceiling and visibility are OK
Clouds: unknown
Weather: no significant weather observed at this time

METAR text: OISS 171650Z 28004KT CAVOK 19/01 Q1019 A3012
Conditions at: OISS (SHIRAZ (CIV/AFB), IR) observed 1650 UTC 17 April 2019
Temperature: 19.0°C (66°F)
Dewpoint: 1.0°C (34°F) [RH = 30%]
Pressure (altimeter): 30.09 inches Hg (1019.0 mb)
Winds: from the W (280 degrees) at 5 MPH (4 knots; 2.1 m/s)
Visibility: 6 or more miles (10+ km)
Ceiling: ceiling and visibility are OK
Clouds: unknown
Weather: no significant weather observed at this time

METAR text: OISS 171630Z 28004KT CAVOK 19/01 Q1019 A3011
Conditions at: OISS (SHIRAZ (CIV/AFB), IR) observed 1630 UTC 17 April 2019
Temperature: 19.0°C (66°F)
Dewpoint: 1.0°C (34°F) [RH = 30%]
Pressure (altimeter): 30.09 inches Hg (1019.0 mb)
Winds: from the W (280 degrees) at 5 MPH (4 knots; 2.1 m/s)
Visibility: 6 or more miles (10+ km)
Ceiling: ceiling and visibility are OK
Clouds: unknown
Weather: no significant weather observed at this time

METAR text: OISS 171620Z 28004KT CAVOK 19/01 Q1019 A3011
Conditions at: OISS (SHIRAZ (CIV/AFB), IR) observed 1620 UTC 17 April 2019
Temperature: 19.0°C (66°F)
Dewpoint: 1.0°C (34°F) [RH = 30%]
Pressure (altimeter): 30.09 inches Hg (1019.0 mb)
Winds: from the W (280 degrees) at 5 MPH (4 knots; 2.1 m/s)
Visibility: 6 or more miles (10+ km)
Ceiling: ceiling and visibility are OK
Clouds: unknown
Weather: no significant weather observed at this time

METAR text: OISS 171600Z 26004KT CAVOK 20/02 Q1019 A3010
Conditions at: OISS (SHIRAZ (CIV/AFB), IR) observed 1600 UTC 17 April 2019
Temperature: 20.0°C (68°F)
Dewpoint: 2.0°C (36°F) [RH = 30%]
Pressure (altimeter): 30.09 inches Hg (1019.0 mb)
Winds: from the W (260 degrees) at 5 MPH (4 knots; 2.1 m/s)
Visibility: 6 or more miles (10+ km)
Ceiling: ceiling and visibility are OK
Clouds: unknown
Weather: no significant weather observed at this time

METAR text: OISS 171550Z 26004KT CAVOK 20/02 Q1019 A3010
Conditions at: OISS (SHIRAZ (CIV/AFB), IR) observed 1550 UTC 17 April 2019
Temperature: 20.0°C (68°F)
Dewpoint: 2.0°C (36°F) [RH = 30%]
Pressure (altimeter): 30.09 inches Hg (1019.0 mb)
Winds: from the W (260 degrees) at 5 MPH (4 knots; 2.1 m/s)
Visibility: 6 or more miles (10+ km)
Ceiling: ceiling and visibility are OK
Clouds: unknown
Weather: no significant weather observed at this time

METAR text: OISS 171530Z 24006KT CAVOK 20/02 Q1019 A3010
Conditions at: OISS (SHIRAZ (CIV/AFB), IR) observed 1530 UTC 17 April 2019
Temperature: 20.0°C (68°F)
Dewpoint: 2.0°C (36°F) [RH = 30%]
Pressure (altimeter): 30.09 inches Hg (1019.0 mb)
Winds: from the WSW (240 degrees) at 7 MPH (6 knots; 3.1 m/s)
Visibility: 6 or more miles (10+ km)
Ceiling: ceiling and visibility are OK
Clouds: unknown
Weather: no significant weather observed at this time

METAR text: OISS 171520Z 24006KT CAVOK 20/02 Q1019 A3010
Conditions at: OISS (SHIRAZ (CIV/AFB), IR) observed 1520 UTC 17 April 2019
Temperature: 20.0°C (68°F)
Dewpoint: 2.0°C (36°F) [RH = 30%]
Pressure (altimeter): 30.09 inches Hg (1019.0 mb)
Winds: from the WSW (240 degrees) at 7 MPH (6 knots; 3.1 m/s)
Visibility: 6 or more miles (10+ km)
Ceiling: ceiling and visibility are OK
Clouds: unknown
Weather: no significant weather observed at this time

METAR text: OISS 171500Z 23004KT CAVOK 21/03 Q1018 A3009
Conditions at: OISS (SHIRAZ (CIV/AFB), IR) observed 1500 UTC 17 April 2019
Temperature: 21.0°C (70°F)
Dewpoint: 3.0°C (37°F) [RH = 30%]
Pressure (altimeter): 30.06 inches Hg (1018.0 mb)
Winds: from the SW (230 degrees) at 5 MPH (4 knots; 2.1 m/s)
Visibility: 6 or more miles (10+ km)
Ceiling: ceiling and visibility are OK
Clouds: unknown
Weather: no significant weather observed at this time

METAR text: OISS 171450Z 23004KT CAVOK 21/03 Q1018 A3009 NOSIG
Conditions at: OISS (SHIRAZ (CIV/AFB), IR) observed 1450 UTC 17 April 2019
Temperature: 21.0°C (70°F)
Dewpoint: 3.0°C (37°F) [RH = 30%]
Pressure (altimeter): 30.06 inches Hg (1018.0 mb)
Winds: from the SW (230 degrees) at 5 MPH (4 knots; 2.1 m/s)
Visibility: 6 or more miles (10+ km)
Ceiling: ceiling and visibility are OK
Clouds: unknown
Weather: no significant weather observed at this time

METAR text: OISS 171430Z 22006KT CAVOK 22/02 Q1018 A3008
Conditions at: OISS (SHIRAZ (CIV/AFB), IR) observed 1430 UTC 17 April 2019
Temperature: 22.0°C (72°F)
Dewpoint: 2.0°C (36°F) [RH = 27%]
Pressure (altimeter): 30.06 inches Hg (1018.0 mb)
Winds: from the SW (220 degrees) at 7 MPH (6 knots; 3.1 m/s)
Visibility: 6 or more miles (10+ km)
Ceiling: ceiling and visibility are OK
Clouds: unknown
Weather: no significant weather observed at this time

METAR text: OISS 171425Z 22006KT CAVOK 22/02 Q1018 A3008
Conditions at: OISS (SHIRAZ (CIV/AFB), IR) observed 1425 UTC 17 April 2019
Temperature: 22.0°C (72°F)
Dewpoint: 2.0°C (36°F) [RH = 27%]
Pressure (altimeter): 30.06 inches Hg (1018.0 mb)
Winds: from the SW (220 degrees) at 7 MPH (6 knots; 3.1 m/s)
Visibility: 6 or more miles (10+ km)
Ceiling: ceiling and visibility are OK
Clouds: unknown
Weather: no significant weather observed at this time

METAR text: OISS 171400Z 24008KT CAVOK 23/02 Q1018 A3007
Conditions at: OISS (SHIRAZ (CIV/AFB), IR) observed 1400 UTC 17 April 2019
Temperature: 23.0°C (73°F)
Dewpoint: 2.0°C (36°F) [RH = 25%]
Pressure (altimeter): 30.06 inches Hg (1018.0 mb)
Winds: from the WSW (240 degrees) at 9 MPH (8 knots; 4.1 m/s)
Visibility: 6 or more miles (10+ km)
Ceiling: ceiling and visibility are OK
Clouds: unknown
Weather: no significant weather observed at this time

METAR text: OISS 171350Z 24008KT CAVOK 23/02 Q1018 A3007
Conditions at: OISS (SHIRAZ (CIV/AFB), IR) observed 1350 UTC 17 April 2019
Temperature: 23.0°C (73°F)
Dewpoint: 2.0°C (36°F) [RH = 25%]
Pressure (altimeter): 30.06 inches Hg (1018.0 mb)
Winds: from the WSW (240 degrees) at 9 MPH (8 knots; 4.1 m/s)
Visibility: 6 or more miles (10+ km)
Ceiling: ceiling and visibility are OK
Clouds: unknown
Weather: no significant weather observed at this time

METAR text: OISS 171330Z 24008KT CAVOK 24/01 Q1018 A3007
Conditions at: OISS (SHIRAZ (CIV/AFB), IR) observed 1330 UTC 17 April 2019
Temperature: 24.0°C (75°F)
Dewpoint: 1.0°C (34°F) [RH = 22%]
Pressure (altimeter): 30.06 inches Hg (1018.0 mb)
Winds: from the WSW (240 degrees) at 9 MPH (8 knots; 4.1 m/s)
Visibility: 6 or more miles (10+ km)
Ceiling: ceiling and visibility are OK
Clouds: unknown
Weather: no significant weather observed at this time

METAR text: OISS 171325Z 24008KT CAVOK 24/01 Q1018 A3007
Conditions at: OISS (SHIRAZ (CIV/AFB), IR) observed 1325 UTC 17 April 2019
Temperature: 24.0°C (75°F)
Dewpoint: 1.0°C (34°F) [RH = 22%]
Pressure (altimeter): 30.06 inches Hg (1018.0 mb)
Winds: from the WSW (240 degrees) at 9 MPH (8 knots; 4.1 m/s)
Visibility: 6 or more miles (10+ km)
Ceiling: ceiling and visibility are OK
Clouds: unknown
Weather: no significant weather observed at this time

METAR text: OISS 171300Z 24012KT CAVOK 24/M01 Q1018 A3007
Conditions at: OISS (SHIRAZ (CIV/AFB), IR) observed 1300 UTC 17 April 2019
Temperature: 24.0°C (75°F)
Dewpoint: -1.0°C (30°F) [RH = 19%]
Pressure (altimeter): 30.06 inches Hg (1018.0 mb)
Winds: from the WSW (240 degrees) at 14 MPH (12 knots; 6.2 m/s)
Visibility: 6 or more miles (10+ km)
Ceiling: ceiling and visibility are OK
Clouds: unknown
Weather: no significant weather observed at this time

METAR text: OISS 171250Z 24012KT CAVOK 24/M01 Q1018 A3007 NOSIG
Conditions at: OISS (SHIRAZ (CIV/AFB), IR) observed 1250 UTC 17 April 2019
Temperature: 24.0°C (75°F)
Dewpoint: -1.0°C (30°F) [RH = 19%]
Pressure (altimeter): 30.06 inches Hg (1018.0 mb)
Winds: from the WSW (240 degrees) at 14 MPH (12 knots; 6.2 m/s)
Visibility: 6 or more miles (10+ km)
Ceiling: ceiling and visibility are OK
Clouds: unknown
Weather: no significant weather observed at this time

METAR text: OISS 171230Z 24010KT CAVOK 25/M01 Q1018 A3006
Conditions at: OISS (SHIRAZ (CIV/AFB), IR) observed 1230 UTC 17 April 2019
Temperature: 25.0°C (77°F)
Dewpoint: -1.0°C (30°F) [RH = 18%]
Pressure (altimeter): 30.06 inches Hg (1018.0 mb)
Winds: from the WSW (240 degrees) at 12 MPH (10 knots; 5.1 m/s)
Visibility: 6 or more miles (10+ km)
Ceiling: ceiling and visibility are OK
Clouds: unknown
Weather: no significant weather observed at this time

METAR text: OISS 171225Z 24010KT CAVOK 25/M01 Q1018 A3006
Conditions at: OISS (SHIRAZ (CIV/AFB), IR) observed 1225 UTC 17 April 2019
Temperature: 25.0°C (77°F)
Dewpoint: -1.0°C (30°F) [RH = 18%]
Pressure (altimeter): 30.06 inches Hg (1018.0 mb)
Winds: from the WSW (240 degrees) at 12 MPH (10 knots; 5.1 m/s)
Visibility: 6 or more miles (10+ km)
Ceiling: ceiling and visibility are OK
Clouds: unknown
Weather: no significant weather observed at this time

METAR text: OISS 171200Z 24008KT CAVOK 26/M02 Q1018 A3006
Conditions at: OISS (SHIRAZ (CIV/AFB), IR) observed 1200 UTC 17 April 2019
Temperature: 26.0°C (79°F)
Dewpoint: -2.0°C (28°F) [RH = 16%]
Pressure (altimeter): 30.06 inches Hg (1018.0 mb)
Winds: from the WSW (240 degrees) at 9 MPH (8 knots; 4.1 m/s)
Visibility: 6 or more miles (10+ km)
Ceiling: ceiling and visibility are OK
Clouds: unknown
Weather: no significant weather observed at this time

METAR text: OISS 171150Z 24008KT CAVOK 26/M02 Q1018 A3006 NOSIG
Conditions at: OISS (SHIRAZ (CIV/AFB), IR) observed 1150 UTC 17 April 2019
Temperature: 26.0°C (79°F)
Dewpoint: -2.0°C (28°F) [RH = 16%]
Pressure (altimeter): 30.06 inches Hg (1018.0 mb)
Winds: from the WSW (240 degrees) at 9 MPH (8 knots; 4.1 m/s)
Visibility: 6 or more miles (10+ km)
Ceiling: ceiling and visibility are OK
Clouds: unknown
Weather: no significant weather observed at this time

METAR text: OISS 171130Z 00000KT CAVOK 25/00 Q1018 A3007
Conditions at: OISS (SHIRAZ (CIV/AFB), IR) observed 1130 UTC 17 April 2019
Temperature: 25.0°C (77°F)
Dewpoint: 0.0°C (32°F) [RH = 19%]
Pressure (altimeter): 30.06 inches Hg (1018.0 mb)
Winds: calm
Visibility: 6 or more miles (10+ km)
Ceiling: ceiling and visibility are OK
Clouds: unknown
Weather: no significant weather observed at this time

METAR text: OISS 171125Z 00000KT CAVOK 25/00 Q1018 A3007
Conditions at: OISS (SHIRAZ (CIV/AFB), IR) observed 1125 UTC 17 April 2019
Temperature: 25.0°C (77°F)
Dewpoint: 0.0°C (32°F) [RH = 19%]
Pressure (altimeter): 30.06 inches Hg (1018.0 mb)
Winds: calm
Visibility: 6 or more miles (10+ km)
Ceiling: ceiling and visibility are OK
Clouds: unknown
Weather: no significant weather observed at this time

METAR text: OISS 171100Z 25008KT 9999 FEW040 SCT200 26/01 Q1018 A3008
Conditions at: OISS (SHIRAZ (CIV/AFB), IR) observed 1100 UTC 17 April 2019
Temperature: 26.0°C (79°F)
Dewpoint: 1.0°C (34°F) [RH = 20%]
Pressure (altimeter): 30.06 inches Hg (1018.0 mb)
Winds: from the WSW (250 degrees) at 9 MPH (8 knots; 4.1 m/s)
Visibility: 6 or more miles (10+ km)
Ceiling: at least 12,000 feet AGL
Clouds: few clouds at 4000 feet AGL
scattered clouds at 20000 feet AGL
Weather: no significant weather observed at this time

METAR text: OISS 171050Z 25008KT 9999 FEW040 SCT200 26/01 Q1018 A3008 NOSIG
Conditions at: OISS (SHIRAZ (CIV/AFB), IR) observed 1050 UTC 17 April 2019
Temperature: 26.0°C (79°F)
Dewpoint: 1.0°C (34°F) [RH = 20%]
Pressure (altimeter): 30.06 inches Hg (1018.0 mb)
Winds: from the WSW (250 degrees) at 9 MPH (8 knots; 4.1 m/s)
Visibility: 6 or more miles (10+ km)
Ceiling: at least 12,000 feet AGL
Clouds: few clouds at 4000 feet AGL
scattered clouds at 20000 feet AGL
Weather: no significant weather observed at this time

METAR text: OISS 171030Z 24012KT 9999 FEW040 SCT200 26/M01 Q1018 A3008
Conditions at: OISS (SHIRAZ (CIV/AFB), IR) observed 1030 UTC 17 April 2019
Temperature: 26.0°C (79°F)
Dewpoint: -1.0°C (30°F) [RH = 17%]
Pressure (altimeter): 30.06 inches Hg (1018.0 mb)
Winds: from the WSW (240 degrees) at 14 MPH (12 knots; 6.2 m/s)
Visibility: 6 or more miles (10+ km)
Ceiling: at least 12,000 feet AGL
Clouds: few clouds at 4000 feet AGL
scattered clouds at 20000 feet AGL
Weather: no significant weather observed at this time

METAR text: OISS 171025Z 24012KT 9999 FEW040 SCT200 26/M01 Q1018 A3008
Conditions at: OISS (SHIRAZ (CIV/AFB), IR) observed 1025 UTC 17 April 2019
Temperature: 26.0°C (79°F)
Dewpoint: -1.0°C (30°F) [RH = 17%]
Pressure (altimeter): 30.06 inches Hg (1018.0 mb)
Winds: from the WSW (240 degrees) at 14 MPH (12 knots; 6.2 m/s)
Visibility: 6 or more miles (10+ km)
Ceiling: at least 12,000 feet AGL
Clouds: few clouds at 4000 feet AGL
scattered clouds at 20000 feet AGL
Weather: no significant weather observed at this time

METAR text: OISS 171000Z 26010KT 9999 FEW040 SCT200 26/01 Q1018 A3008
Conditions at: OISS (SHIRAZ (CIV/AFB), IR) observed 1000 UTC 17 April 2019
Temperature: 26.0°C (79°F)
Dewpoint: 1.0°C (34°F) [RH = 20%]
Pressure (altimeter): 30.06 inches Hg (1018.0 mb)
Winds: from the W (260 degrees) at 12 MPH (10 knots; 5.1 m/s)
Visibility: 6 or more miles (10+ km)
Ceiling: at least 12,000 feet AGL
Clouds: few clouds at 4000 feet AGL
scattered clouds at 20000 feet AGL
Weather: no significant weather observed at this time

METAR text: OISS 170950Z 26010KT 9999 FEW040 SCT200 26/01 Q1018 A3008
Conditions at: OISS (SHIRAZ (CIV/AFB), IR) observed 0950 UTC 17 April 2019
Temperature: 26.0°C (79°F)
Dewpoint: 1.0°C (34°F) [RH = 20%]
Pressure (altimeter): 30.06 inches Hg (1018.0 mb)
Winds: from the W (260 degrees) at 12 MPH (10 knots; 5.1 m/s)
Visibility: 6 or more miles (10+ km)
Ceiling: at least 12,000 feet AGL
Clouds: few clouds at 4000 feet AGL
scattered clouds at 20000 feet AGL
Weather: no significant weather observed at this time

METAR text: OISS 170930Z 23008KT 9999 FEW040 25/M01 Q1019 A3009
Conditions at: OISS (SHIRAZ (CIV/AFB), IR) observed 0930 UTC 17 April 2019
Temperature: 25.0°C (77°F)
Dewpoint: -1.0°C (30°F) [RH = 18%]
Pressure (altimeter): 30.09 inches Hg (1019.0 mb)
Winds: from the SW (230 degrees) at 9 MPH (8 knots; 4.1 m/s)
Visibility: 6 or more miles (10+ km)
Ceiling: at least 12,000 feet AGL
Clouds: few clouds at 4000 feet AGL
Weather: no significant weather observed at this time

METAR text: OISS 170920Z 23008KT 9999 FEW040 25/M01 Q1019 A3009
Conditions at: OISS (SHIRAZ (CIV/AFB), IR) observed 0920 UTC 17 April 2019
Temperature: 25.0°C (77°F)
Dewpoint: -1.0°C (30°F) [RH = 18%]
Pressure (altimeter): 30.09 inches Hg (1019.0 mb)
Winds: from the SW (230 degrees) at 9 MPH (8 knots; 4.1 m/s)
Visibility: 6 or more miles (10+ km)
Ceiling: at least 12,000 feet AGL
Clouds: few clouds at 4000 feet AGL
Weather: no significant weather observed at this time

METAR text: OISS 170900Z 24006KT CAVOK 25/01 Q1019 A3010
Conditions at: OISS (SHIRAZ (CIV/AFB), IR) observed 0900 UTC 17 April 2019
Temperature: 25.0°C (77°F)
Dewpoint: 1.0°C (34°F) [RH = 21%]
Pressure (altimeter): 30.09 inches Hg (1019.0 mb)
Winds: from the WSW (240 degrees) at 7 MPH (6 knots; 3.1 m/s)
Visibility: 6 or more miles (10+ km)
Ceiling: ceiling and visibility are OK
Clouds: unknown
Weather: no significant weather observed at this time

METAR text: OISS 170850Z 24006KT CAVOK 25/01 Q1019 A3010 NOSIG
Conditions at: OISS (SHIRAZ (CIV/AFB), IR) observed 0850 UTC 17 April 2019
Temperature: 25.0°C (77°F)
Dewpoint: 1.0°C (34°F) [RH = 21%]
Pressure (altimeter): 30.09 inches Hg (1019.0 mb)
Winds: from the WSW (240 degrees) at 7 MPH (6 knots; 3.1 m/s)
Visibility: 6 or more miles (10+ km)
Ceiling: ceiling and visibility are OK
Clouds: unknown
Weather: no significant weather observed at this time

METAR text: OISS 170830Z 24006KT CAVOK 25/02 Q1019 A3011
Conditions at: OISS (SHIRAZ (CIV/AFB), IR) observed 0830 UTC 17 April 2019
Temperature: 25.0°C (77°F)
Dewpoint: 2.0°C (36°F) [RH = 22%]
Pressure (altimeter): 30.09 inches Hg (1019.0 mb)
Winds: from the WSW (240 degrees) at 7 MPH (6 knots; 3.1 m/s)
Visibility: 6 or more miles (10+ km)
Ceiling: ceiling and visibility are OK
Clouds: unknown
Weather: no significant weather observed at this time

METAR text: OISS 170825Z 24006KT CAVOK 25/02 Q1019 A3011
Conditions at: OISS (SHIRAZ (CIV/AFB), IR) observed 0825 UTC 17 April 2019
Temperature: 25.0°C (77°F)
Dewpoint: 2.0°C (36°F) [RH = 22%]
Pressure (altimeter): 30.09 inches Hg (1019.0 mb)
Winds: from the WSW (240 degrees) at 7 MPH (6 knots; 3.1 m/s)
Visibility: 6 or more miles (10+ km)
Ceiling: ceiling and visibility are OK
Clouds: unknown
Weather: no significant weather observed at this time

METAR text: OISS 170800Z 22004KT CAVOK 24/03 Q1020 A3013
Conditions at: OISS (SHIRAZ (CIV/AFB), IR) observed 0800 UTC 17 April 2019
Temperature: 24.0°C (75°F)
Dewpoint: 3.0°C (37°F) [RH = 25%]
Pressure (altimeter): 30.12 inches Hg (1020.0 mb)
Winds: from the SW (220 degrees) at 5 MPH (4 knots; 2.1 m/s)
Visibility: 6 or more miles (10+ km)
Ceiling: ceiling and visibility are OK
Clouds: unknown
Weather: no significant weather observed at this time

METAR text: OISS 170750Z 22004KT CAVOK 24/03 Q1020 A3013 NOSIG
Conditions at: OISS (SHIRAZ (CIV/AFB), IR) observed 0750 UTC 17 April 2019
Temperature: 24.0°C (75°F)
Dewpoint: 3.0°C (37°F) [RH = 25%]
Pressure (altimeter): 30.12 inches Hg (1020.0 mb)
Winds: from the SW (220 degrees) at 5 MPH (4 knots; 2.1 m/s)
Visibility: 6 or more miles (10+ km)
Ceiling: ceiling and visibility are OK
Clouds: unknown
Weather: no significant weather observed at this time

METAR text: OISS 170730Z 18004KT CAVOK 23/04 Q1020 A3014
Conditions at: OISS (SHIRAZ (CIV/AFB), IR) observed 0730 UTC 17 April 2019
Temperature: 23.0°C (73°F)
Dewpoint: 4.0°C (39°F) [RH = 29%]
Pressure (altimeter): 30.12 inches Hg (1020.0 mb)
Winds: from the S (180 degrees) at 5 MPH (4 knots; 2.1 m/s)
Visibility: 6 or more miles (10+ km)
Ceiling: ceiling and visibility are OK
Clouds: unknown
Weather: no significant weather observed at this time

Forecast for: OISS (SHIRAZ (CIV/AFB), IR)
Text: TAF OISS 181730Z 1818/1924 26008KT 8000 FEW035 SCT100
Forecast period: 1800 UTC 18 April 2019 to 0000 UTC 20 April 2019
Forecast type: FROM: standard forecast or significant change
Winds: from the W (260 degrees) at 9 MPH (8 knots; 4.1 m/s)
Visibility: 5 miles (8 km)
Ceiling: at least 12,000 feet AGL
Clouds: few clouds at 3500 feet AGL
scattered clouds at 10000 feet AGL
Weather: no significant weather forecast for this period
Text: TEMPO 1909/1915 FEW035CB SCT040 BKN090
Forecast period: 0900 to 1500 UTC 19 April 2019
Forecast type: TEMPORARY: The following changes expected for less than half the time period
Visibility: missing
Ceiling: 9000 feet AGL
Clouds: few clouds at 3500 feet AGL
scattered clouds at 4000 feet AGL
broken clouds at 9000 feet AGL
Weather: no significant weather forecast for this period
Text: PROB40 1912/1915 5000 TS/SHRA
Forecast period: 1200 to 1500 UTC 19 April 2019
Forecast type: PROBABLE: 40 percent likelihood of the following during this time
Visibility: 3 miles (5 km)
Ceiling: unknown
Clouds: missing
Weather: SHRA TS  (rain showers, thunderstorm)